LogoCoinalyze
    Ad-Free Version 홈 마켓 펀딩비
    선물 데이터
    • 집계된 데이터 (코인들)
    • 개별 차트
    • 글로벌 차트
    알림
    TA
    Bitcoin Ethereum BNB Ripple Tron ZCash Dogecoin Monero UNUS SED LEO Chainlink Cardano Stellar Lumens Bitcoin Cash Litecoin Hedera Cronos Polkadot Ethereum Classic Algorand Quant Cosmos VeChain Dash Bitcoin SV BitTorrent Terra Decred Tezos Iota The Graph THETA MultiversX Decentraland NEO Chiliz Golem Basic Attention Token Horizen Qtum DigiByte 0x Beam RIF Token FTX Token Holo FUNToken aelf Zilliqa Ontology Nano Ravencoin Enjin Coin Mask Network Verge Status Siacoin WINk Waves IoTeX Power Ledger iExec RLC Steem Kyber Network Crystal Ark Lisk Ardor WOO Network IOST WAX Icon Storj Wanchain Loopring Bitcoin Diamond Augur AdEx Bitcoin Gold OmiseGO NEM MonaCoin BitShares Ren Komodo V Systems Nuls Mithril SOLVE EOS Maker Aion Nebulas HedgeTrade Waltonchain Bytom Polygon Metaverse ETP TomoChain GXChain Fetch.ai MaidSafeCoin Fantom Bread QASH
    정렬 검색:
    더보기
    • API
    • 캔들 유형
    • 블로그
    • 기부
    • 연락하기
    • 사이트맵
    • Privacy Policy
    • Disclaimer
    • Theme:
    한국어
    • English
    • Français
    • Русский
    • Deutsch
    • Türkçe
    • Nederlands
    • Português (BR)
    • Español
    • 简体中文
    • 日本語
     
    로그인 / 회원가입
    Markets/ Pepe/ PEPE 로 FDUSD/ PEPEFDUSD Binance
    Trades
    WL
    채팅
    통계
    뉴스
    ⦷
    AAA
    0.00000348 2521084.00000000 08:05:24
    0.00000349 56.00000000 08:05:20
    0.00000349 17020400.00000000 08:05:20
    0.00000348 42.00000000 08:03:35
    0.00000348 4504500.00000000 08:03:35
    0.00000347 296736.00000000 08:01:00
    0.00000347 7032108.00000000 07:47:11
    0.00000348 7025626.00000000 07:39:16
    0.00000347 4511024.00000000 07:30:36
    0.00000348 812199049.00000000 07:30:22
    0.00000348 241210374.00000000 07:30:22
    0.00000348 856254084.00000000 07:30:22
    0.00000348 712736209.00000000 07:30:22
    0.00000347 2477867078.00000000 07:30:22
    0.00000347 23733566.00000000 07:28:30
    0.00000347 23665897.00000000 07:26:58
    0.00000347 44255179.00000000 07:25:31
    0.00000348 990385.00000000 07:12:00
    0.00000347 421053.00000000 07:07:44
    0.00000347 418186.00000000 07:07:43
    0.00000347 444323.00000000 07:07:42
    0.00000347 443479.00000000 07:07:41
    0.00000347 442197.00000000 07:07:41
    0.00000348 81.00000000 07:07:41
    0.00000348 16270700.00000000 07:07:40
    0.00000349 46012058.00000000 07:05:56
    0.00000349 5632758.00000000 07:05:52
    0.00000348 69.00000000 07:04:33
    0.00000348 3511400.00000000 07:04:33
    0.00000348 23613100.00000000 07:04:30
    0.00000348 2528656.00000000 07:04:27
    0.00000348 193901271.00000000 07:04:24
    0.00000348 116747417.00000000 07:04:23
    0.00000347 2536274.00000000 07:04:12
    0.00000347 39301168.00000000 07:04:11
    0.00000346 50000000.00000000 06:34:10
    0.00000346 253761800.00000000 06:28:53
    0.00000346 607893.00000000 06:28:49
    0.00000346 23749600.00000000 06:20:26
    0.00000346 46846284.00000000 06:19:32
    0.00000346 116747417.00000000 06:06:20
    0.00000346 116747417.00000000 06:06:13
    0.00000345 447369.00000000 06:06:10
    0.00000345 2543863.00000000 06:06:06
    0.00000346 116747417.00000000 06:06:04
    0.00000345 2551499.00000000 05:51:21
    0.00000345 115121519.00000000 05:51:17
    0.00000345 16604200.00000000 05:51:17
    0.00000345 84266999.00000000 05:51:17
    0.00000345 116747417.00000000 05:51:17
    0.00000344 90169646.00000000 05:48:40
    0.00000344 116747417.00000000 05:48:32
    0.00000343 2559105.00000000 05:48:21
    0.00000344 116747417.00000000 05:48:19
    0.00000343 65943916.00000000 05:37:45
    0.00000343 116747417.00000000 05:37:45
    0.00000343 116747417.00000000 05:36:55
    0.00000342 9649123.00000000 05:27:08
    0.00000342 97504594.00000000 05:27:08
    0.00000342 116747417.00000000 05:27:07
    0.00000343 2559105.00000000 05:23:36
    0.00000342 116747417.00000000 05:23:33
    0.00000343 2551499.00000000 05:22:43
    0.00000343 5830904.00000000 05:22:41
    0.00000343 242021611.00000000 05:22:41
    0.00000343 116747417.00000000 05:22:41
    0.00000344 444768.00000000 05:20:21
    0.00000344 444768.00000000 05:20:21
    0.00000344 4941861.00000000 05:20:20
    0.00000344 20.00000000 05:20:20
    0.00000345 2543863.00000000 05:20:19
    0.00000344 7778400.00000000 05:20:18
    0.00000344 116747417.00000000 05:20:18
    0.00000344 116747417.00000000 05:20:16
    0.00000344 116747417.00000000 05:20:15
    0.00000345 187091022.00000000 05:17:42
    0.00000345 116747417.00000000 05:17:42
    0.00000346 2543863.00000000 04:52:48
    0.00000346 80653520.00000000 04:52:46
    0.00000346 116747417.00000000 04:52:46
    0.00000346 126346000.00000000 04:52:46
    0.00000345 48624395.00000000 04:50:52
    0.00000345 128444000.00000000 04:50:52
    0.00000345 2536274.00000000 04:50:47
    0.00000345 116747417.00000000 04:50:46
    0.00000344 451328.00000000 04:15:25
    0.00000344 452663.00000000 04:15:24
    0.00000344 422288.00000000 04:15:24
    0.00000344 421053.00000000 04:15:24
    0.00000345 2543863.00000000 04:15:24
    0.00000344 90975253.00000000 04:15:21
    0.00000344 413804000.00000000 04:15:21
    0.00000344 3776200.00000000 04:15:21
    0.00000344 786146200.00000000 04:15:21
    0.00000344 957950076.00000000 04:15:21
    0.00000345 363627340.00000000 04:15:21
    0.00000345 233494834.00000000 04:15:21
    0.00000346 32632741.00000000 03:35:05
    0.00000347 69344739.00000000 03:32:39
    0.00000347 993239.00000000 03:13:49
    로그아웃
    AAA
    고객 센터
    🙂 🤣 😎 🤗 😛 😉 😜 🤑 🤔 😑 😴 😕 🙃 😲 😇 🙁 😢 😬 😟 😠 🕺 🏃 💪 ✌ 👌 👍 👎 👏 👋 🤝 🍺 🍻 🐋 🐟 🦈 🗽 🚄 ✈ 🛑 🚀 🏦 🌚 ⭐ 🌞 ⚡ 🏆 💰 💲 🔨 ❓ ❗ 💯 🔶 🏁
    ☺
    로그인 또는 회원가입 및 채팅
    24시간
    변동
    +0.58%
    거래량
    30,175,735,898
    고가
    0.00000349
    저가
    0.00000337
    7일
    변동
    -9.84%
    거래량
    217,124,919,789
    고가
    0.00000401
    저가
    0.00000337
    30일
    변동
    +19.59%
    거래량
    1,403,529,654,252
    고가
    0.00000456
    저가
    0.00000254
    DOGE, SHIB, PEPE, or Something Else: Which Meme Coin Can Make History in September? (3 AIs Weigh In)
    "DOGE remains the most likely to record the largest move in dollar terms and lead the entire sector," ChatGPT stated.
    cryptopotato.com
    Sept 3, 2026 00:41
    Pepe price rallies 25% as whale demand and futures interest surge
    Key takeaways Pepe has gained 25% this week, including a combined 22% advance over the previous two days. Seven whale transactions worth more than $1 million each occurred Thursday, the highest...
    coinjournal.net
    Aug 21, 2026 08:41
    PEPE Supply on Exchanges Just Took a Massive Hit – What’s Next?
    A drop in PEPE exchange balances has added to bullish expectations despite muted trader interest.
    cryptopotato.com
    Aug 6, 2026 20:02
    PEPE Exchange Outflows Hit Nearly 2-Year High as Whales Accumulate
    Pepe (PEPE) recorded its largest single-day exchange outflow since November 2024, with 4.54 trillion tokens leaving trading platforms, signaling that holders are moving supply away from immediate...
    beincrypto.com
    Aug 6, 2026 04:57
    Meme Coin Based on White House Shooter Conspiracy Rallies 320%
    $HENRY surged 300% after a 2023 Pepe tweet appeared to name the White House shooter, fueling a viral time-travel meme. The post Meme Coin Based on White House Shooter Conspiracy Rallies 320%...
    beincrypto.com
    Apr 27, 2026 16:11
    PEPE surges 4% as market sentiment improves, eyes Key resistance breakout
    Key takeaways Pepe extends gains on Wednesday, stretching its rally from the 50-day EMA. Derivatives data show heightened retail activity as risk-on sentiment returns to the market. Pepe (PEPE) is...
    coinjournal.net
    Apr 22, 2026 11:44
    Why The PEPE Price Could Stage A 55X Rally To Reach New $0.0001 ATH
    The PEPE price has now started to edge back into bullish conversations after the recent inflows into the crypto market. The last time PEPE’s weekly chart printed the kind of structure now...
    newsbtc.com
    Apr 21, 2026 15:30
    Pepe (PEPE) surges 9%, drawing interest from whales
    Key takeaways PEPE is up 9% in the last 24 hours, making it one of the best performers among the top 50 cryptocurrencies by market cap. The rally comes amid renewed interest from whales and retail...
    coinjournal.net
    Apr 16, 2026 07:40
    Murad Says SPX6900 (SPX) Is Primed for a Rally — Is He Right This Time?
    Crypto influencer Murad Mahmudov claims SPX6900 (SPX) is stabilizing at the same market cap level where Dogecoin (DOGE) and Pepe (PEPE) consolidated before their explosive rallies. The...
    beincrypto.com
    Apr 5, 2026 21:36
    The Shiba Inu Of This Cycle: Analyst Shares Why It Is Better To Buy PEPE Now
    In the bull market cycle of 2021-2022, the Shiba Inu meme coin made waves in a way that changed the face of meme coins forever. This came after Dogecoin’s initial 36,000% rally, and Shiba Inu...
    newsbtc.com
    Apr 4, 2026 07:30
    PEPE Explodes by 18% Amid Altcoin Rally, BTC Tapped $74K: Market Watch
    The frog-themed meme coin is today's biggest gainer, followed by TAO, DOT, and BONK.
    cryptopotato.com
    Mar 16, 2026 10:56
    Should PEPE traders brace for volatility as short squeeze potential builds?
    The memecoin market has seen its collective market capitalization drop by 48% over the past year, and 6.9% over the past month, according to CoinMarketCap. According to Glassnode, the memecoin...
    ambcrypto.com
    Mar 7, 2026 18:00
    간단히 명령어를 채팅방에 입력하세요. Nick1을 실제 사용할 닉네임으로 바꾸세요
    • /ignore nick1 채팅 사용자를 차단합니다
    • /unignore nick1 채팅 사용자를 차단 해제합니다
    • /ignorelist 차단된 채팅 사용자 보기